VCP9AK SCSE-SCEL

Flight info

Callsign VCP9AK
Flight time 0h 39m
Altitude 29000
Route ISGUD7 ISGUD DCT SIMOK SIMOK7B
Aircraft B738/M-SDE2E3FGHIRWXY/LB1

Departure

Time 2026-04-14 12:46
Airport La Florida Airport (SCSE)

Arrival

Time 2026-04-14 13:26
Airport Comodoro Arturo Merino Benítez International Airport (SCEL)
Time Latitude Longitude Altitude Speed Heading
2026-04-14 12:23 -29.91701 -71.20273 467 ft 0 kts 161°
2026-04-14 12:42 -29.91703 -71.20270 467 ft 0 kts 121°
2026-04-14 12:42 -29.91701 -71.20260 467 ft 1 kts 61°
2026-04-14 12:42 -29.91678 -71.20252 467 ft 5 kts 342°
2026-04-14 12:43 -29.91647 -71.20285 466 ft 6 kts 308°
2026-04-14 12:43 -29.91608 -71.20303 465 ft 6 kts 12°
2026-04-14 12:43 -29.91600 -71.20301 466 ft 0 kts 20°
2026-04-14 12:43 -29.91599 -71.20300 466 ft 0 kts 20°
2026-04-14 12:44 -29.91563 -71.20282 466 ft 8 kts 26°
2026-04-14 12:44 -29.91508 -71.20288 465 ft 9 kts 319°
2026-04-14 12:44 -29.91466 -71.20374 463 ft 15 kts 296°
2026-04-14 12:45 -29.91336 -71.20679 455 ft 23 kts 296°
2026-04-14 12:45 -29.91300 -71.20804 451 ft 12 kts 273°
2026-04-14 12:45 -29.91271 -71.20841 449 ft 6 kts 64°
2026-04-14 12:45 -29.91276 -71.20818 450 ft 0 kts 116°
2026-04-14 12:46 -29.91307 -71.20746 452 ft 42 kts 116°
2026-04-14 12:46 -29.91558 -71.20160 466 ft 119 kts 115°
2026-04-14 12:46 -29.92026 -71.19063 604 ft 173 kts 115°
2026-04-14 12:46 -29.92529 -71.17872 1621 ft 165 kts 114°
2026-04-14 12:47 -29.93012 -71.16708 2415 ft 167 kts 114°
2026-04-14 12:47 -29.93535 -71.15449 2927 ft 183 kts 114°
2026-04-14 12:47 -29.94118 -71.14068 3462 ft 199 kts 115°
2026-04-14 12:47 -29.94748 -71.12619 4047 ft 212 kts 118°
2026-04-14 12:48 -29.95701 -71.11205 4594 ft 232 kts 135°
2026-04-14 12:48 -29.96935 -71.09950 5212 ft 246 kts 138°
2026-04-14 12:48 -29.98267 -71.08633 5821 ft 261 kts 137°
2026-04-14 12:48 -29.99662 -71.07201 6518 ft 272 kts 136°
2026-04-14 12:49 -30.01062 -71.05726 7329 ft 279 kts 136°
2026-04-14 12:49 -30.02491 -71.04206 8165 ft 284 kts 136°
2026-04-14 12:49 -30.03958 -71.02645 9005 ft 289 kts 136°
2026-04-14 12:49 -30.05431 -71.01078 9800 ft 294 kts 136°
2026-04-14 12:50 -30.06946 -70.99468 10615 ft 300 kts 136°
2026-04-14 12:50 -30.10489 -70.96551 11569 ft 333 kts 160°
2026-04-14 12:50 -30.12823 -70.95909 12131 ft 348 kts 169°
2026-04-14 12:51 -30.15255 -70.95519 12688 ft 360 kts 172°
2026-04-14 12:51 -30.17775 -70.95171 13431 ft 367 kts 172°
2026-04-14 12:51 -30.20324 -70.94796 14194 ft 371 kts 172°
2026-04-14 12:51 -30.22872 -70.94384 14969 ft 374 kts 171°
2026-04-14 12:52 -30.25483 -70.93931 15639 ft 380 kts 171°
2026-04-14 12:52 -30.28087 -70.93456 16396 ft 382 kts 171°
2026-04-14 12:52 -30.30724 -70.92962 17132 ft 386 kts 171°
2026-04-14 12:52 -30.33389 -70.92457 17789 ft 391 kts 171°
2026-04-14 12:53 -30.36080 -70.91947 18462 ft 394 kts 171°
2026-04-14 12:53 -30.38751 -70.91443 19176 ft 394 kts 172°
2026-04-14 12:53 -30.41471 -70.90932 19847 ft 396 kts 172°
2026-04-14 12:53 -30.44209 -70.90419 20526 ft 397 kts 172°
2026-04-14 12:54 -30.46937 -70.89909 21212 ft 399 kts 172°
2026-04-14 12:54 -30.49671 -70.89397 21783 ft 402 kts 172°
2026-04-14 12:54 -30.52420 -70.88882 22424 ft 403 kts 172°
2026-04-14 12:54 -30.55238 -70.88408 22997 ft 405 kts 174°
2026-04-14 12:55 -30.58045 -70.88081 23602 ft 406 kts 176°
2026-04-14 12:55 -30.60872 -70.87828 24153 ft 408 kts 177°
2026-04-14 12:55 -30.63697 -70.87604 24711 ft 410 kts 177°
2026-04-14 12:55 -30.66558 -70.87380 25223 ft 413 kts 177°
2026-04-14 12:56 -30.69436 -70.87148 25812 ft 414 kts 177°
2026-04-14 12:56 -30.72312 -70.86908 26301 ft 417 kts 177°
2026-04-14 12:56 -30.75222 -70.86655 26820 ft 418 kts 177°
2026-04-14 12:56 -30.78145 -70.86395 27367 ft 419 kts 177°
2026-04-14 12:57 -30.81063 -70.86130 28043 ft 416 kts 177°
2026-04-14 12:57 -30.83895 -70.85869 28755 ft 411 kts 177°
2026-04-14 12:57 -30.86773 -70.85602 29113 ft 412 kts 177°
2026-04-14 12:58 -30.92508 -70.85068 29196 ft 408 kts 177°
2026-04-14 12:58 -30.98208 -70.84532 29217 ft 409 kts 177°
2026-04-14 12:59 -31.03917 -70.83997 29247 ft 409 kts 177°
2026-04-14 12:59 -31.09619 -70.83460 29274 ft 409 kts 177°
2026-04-14 13:00 -31.15365 -70.82920 29326 ft 409 kts 177°
2026-04-14 13:00 -31.21071 -70.82384 29370 ft 411 kts 177°
2026-04-14 13:01 -31.26811 -70.81842 29409 ft 411 kts 177°
2026-04-14 13:01 -31.32510 -70.81356 29405 ft 410 kts 180°
2026-04-14 13:02 -31.38192 -70.81523 29390 ft 409 kts 186°
2026-04-14 13:02 -31.43898 -70.82089 29360 ft 412 kts 187°
2026-04-14 13:03 -31.49580 -70.82707 29330 ft 411 kts 187°
2026-04-14 13:03 -31.55326 -70.83315 29298 ft 412 kts 187°
2026-04-14 13:04 -31.61003 -70.83895 29288 ft 411 kts 186°
2026-04-14 13:04 -31.66755 -70.84472 29265 ft 414 kts 187°
2026-04-14 13:05 -31.72474 -70.85041 29268 ft 414 kts 187°
2026-04-14 13:05 -31.78233 -70.85362 29271 ft 414 kts 182°
2026-04-14 13:05 -31.81093 -70.85295 29161 ft 404 kts 180°
2026-04-14 13:06 -31.83881 -70.85169 28963 ft 394 kts 180°
2026-04-14 13:06 -31.86605 -70.85027 28598 ft 398 kts 180°
2026-04-14 13:06 -31.89399 -70.84888 28094 ft 404 kts 180°
2026-04-14 13:06 -31.92178 -70.84759 27523 ft 403 kts 180°
2026-04-14 13:07 -31.94981 -70.84638 26956 ft 401 kts 180°
2026-04-14 13:07 -31.97753 -70.84527 26409 ft 399 kts 180°
2026-04-14 13:07 -32.00524 -70.84420 25858 ft 397 kts 180°
2026-04-14 13:07 -32.03275 -70.84319 25290 ft 395 kts 180°
2026-04-14 13:08 -32.06032 -70.84219 24711 ft 394 kts 180°
2026-04-14 13:08 -32.08773 -70.84122 24147 ft 392 kts 180°
2026-04-14 13:08 -32.11480 -70.84024 23594 ft 390 kts 180°
2026-04-14 13:08 -32.14177 -70.83928 23038 ft 389 kts 180°
2026-04-14 13:09 -32.16901 -70.83831 22495 ft 387 kts 180°
2026-04-14 13:09 -32.19582 -70.83735 21963 ft 386 kts 180°
2026-04-14 13:09 -32.22233 -70.83640 21418 ft 386 kts 180°
2026-04-14 13:09 -32.24905 -70.83543 20832 ft 379 kts 180°
2026-04-14 13:10 -32.27508 -70.83448 20334 ft 374 kts 180°
2026-04-14 13:10 -32.30124 -70.83353 19816 ft 374 kts 180°
2026-04-14 13:10 -32.32719 -70.83258 19224 ft 373 kts 180°
2026-04-14 13:10 -32.35298 -70.83165 18721 ft 371 kts 180°
2026-04-14 13:11 -32.37900 -70.83070 18178 ft 369 kts 180°
2026-04-14 13:11 -32.40426 -70.82978 17688 ft 363 kts 180°
2026-04-14 13:11 -32.42949 -70.82887 17132 ft 361 kts 180°
2026-04-14 13:11 -32.45442 -70.82798 16649 ft 360 kts 180°
2026-04-14 13:12 -32.47934 -70.82709 16147 ft 359 kts 180°
2026-04-14 13:12 -32.50425 -70.82620 15653 ft 357 kts 180°
2026-04-14 13:12 -32.52935 -70.82529 15091 ft 355 kts 180°
2026-04-14 13:12 -32.55354 -70.82442 14644 ft 350 kts 180°
2026-04-14 13:13 -32.57797 -70.82353 14149 ft 349 kts 180°
2026-04-14 13:13 -32.60211 -70.82265 13662 ft 348 kts 179°
2026-04-14 13:13 -32.62651 -70.82177 13152 ft 346 kts 179°
2026-04-14 13:13 -32.65040 -70.82091 12743 ft 346 kts 179°
2026-04-14 13:14 -32.67449 -70.82003 12231 ft 344 kts 179°
2026-04-14 13:14 -32.69814 -70.81917 12035 ft 332 kts 179°
2026-04-14 13:14 -32.72073 -70.81834 11949 ft 319 kts 179°
2026-04-14 13:14 -32.74236 -70.81754 11847 ft 307 kts 179°
2026-04-14 13:15 -32.76372 -70.81677 11562 ft 303 kts 179°
2026-04-14 13:15 -32.78453 -70.81603 11201 ft 297 kts 179°
2026-04-14 13:15 -32.80502 -70.81530 10873 ft 291 kts 179°
2026-04-14 13:15 -32.82526 -70.81458 10485 ft 291 kts 179°
2026-04-14 13:16 -32.84545 -70.81384 10161 ft 289 kts 179°
2026-04-14 13:16 -32.86551 -70.81311 9832 ft 288 kts 179°
2026-04-14 13:16 -32.88573 -70.81236 9481 ft 287 kts 179°
2026-04-14 13:16 -32.90559 -70.81163 9178 ft 285 kts 179°
2026-04-14 13:17 -32.92533 -70.81194 8844 ft 284 kts 185°
2026-04-14 13:17 -32.94494 -70.81431 8523 ft 283 kts 188°
2026-04-14 13:17 -32.96428 -70.81738 8346 ft 271 kts 189°
2026-04-14 13:17 -32.98259 -70.82040 8059 ft 261 kts 189°
2026-04-14 13:18 -33.00032 -70.82313 7826 ft 254 kts 186°
2026-04-14 13:18 -33.01787 -70.82378 7491 ft 254 kts 179°
2026-04-14 13:18 -33.03569 -70.82240 7266 ft 250 kts 175°
2026-04-14 13:18 -33.05259 -70.82079 7182 ft 239 kts 176°
2026-04-14 13:19 -33.06802 -70.81974 7057 ft 232 kts 178°
2026-04-14 13:19 -33.08372 -70.81892 6937 ft 222 kts 178°
2026-04-14 13:19 -33.09884 -70.81819 6858 ft 208 kts 178°
2026-04-14 13:19 -33.11312 -70.81746 6703 ft 202 kts 178°
2026-04-14 13:20 -33.12710 -70.81670 6414 ft 203 kts 178°
2026-04-14 13:20 -33.14111 -70.81595 6120 ft 201 kts 178°
2026-04-14 13:20 -33.15512 -70.81521 5852 ft 199 kts 178°
2026-04-14 13:20 -33.16886 -70.81449 5566 ft 198 kts 178°
2026-04-14 13:21 -33.18266 -70.81374 5281 ft 196 kts 178°
2026-04-14 13:21 -33.19637 -70.81302 5025 ft 195 kts 178°
2026-04-14 13:21 -33.20982 -70.81229 4731 ft 195 kts 178°
2026-04-14 13:21 -33.22322 -70.81156 4480 ft 194 kts 178°
2026-04-14 13:22 -33.23664 -70.81076 4229 ft 191 kts 178°
2026-04-14 13:22 -33.24988 -70.81008 3975 ft 191 kts 179°
2026-04-14 13:22 -33.26318 -70.80952 3714 ft 189 kts 178°
2026-04-14 13:22 -33.27615 -70.80875 3463 ft 185 kts 178°
2026-04-14 13:23 -33.28860 -70.80804 3234 ft 170 kts 179°
2026-04-14 13:23 -33.30000 -70.80747 2980 ft 160 kts 178°
2026-04-14 13:23 -33.31083 -70.80688 2779 ft 154 kts 178°
2026-04-14 13:23 -33.32164 -70.80631 2572 ft 154 kts 178°
2026-04-14 13:24 -33.33226 -70.80574 2366 ft 151 kts 177°
2026-04-14 13:24 -33.35327 -70.80460 1961 ft 151 kts 178°
2026-04-14 13:24 -33.36380 -70.80403 1756 ft 150 kts 177°
2026-04-14 13:25 -33.37414 -70.80366 1577 ft 147 kts 177°
2026-04-14 13:25 -33.38286 -70.80313 1563 ft 95 kts 176°
2026-04-14 13:26 -33.39277 -70.80228 1563 ft 24 kts 157°
2026-04-14 13:26 -33.39407 -70.80142 1563 ft 11 kts 148°
2026-04-14 13:26 -33.39485 -70.80084 1563 ft 15 kts 147°
2026-04-14 13:26 -33.39530 -70.80019 1563 ft 9 kts 105°
2026-04-14 13:27 -33.39530 -70.79941 1563 ft 9 kts 86°
2026-04-14 13:27 -33.39528 -70.79858 1563 ft 11 kts 90°
2026-04-14 13:27 -33.39525 -70.79750 1563 ft 15 kts 88°
2026-04-14 13:27 -33.39522 -70.79617 1563 ft 16 kts 88°
2026-04-14 13:28 -33.39517 -70.79485 1563 ft 15 kts 88°
2026-04-14 13:28 -33.39512 -70.79375 1563 ft 8 kts 87°
2026-04-14 13:28 -33.39514 -70.79314 1563 ft 4 kts 102°
2026-04-14 13:28 -33.39531 -70.79295 1563 ft 3 kts 167°
2026-04-14 13:29 -33.39553 -70.79291 1563 ft 2 kts 173°
2026-04-14 13:29 -33.39573 -70.79290 1563 ft 3 kts 176°
2026-04-14 13:29 -33.39592 -70.79288 1563 ft 0 kts 176°